[[{"header":{"parameterUnit":"m.s-1","parameterCategory":1,"la1":30.2991,"la2":30.254,"lo1":-89.0895,"lo2":-89.0444,"dy":0.0017,"dx":0.0017,"nx":28,"ny":28,"refTime":"2023-06-19T21:00:00:Z","depth":0,"parameterNumber":2,"parameterNumberName":"U-component_of_WINDS"},"data":[0,0,0,0,0,0,0,0,0,0,0,0,0,0,0,0,0,0,0,0,0,0,0,0,0,0,0,0,0,0,0,0,0,0,0,0,0,0,0,0,0,0,0,0,0,0,0,0,0,0,0,0,0,0,0,0,0,0,1.4548,1.4552,0,1.496,1.4965,1.497,1.5153,1.5152,1.5152,1.5151,1.5578,1.5589,1.5601,0,0,0,0,0,0,0,0,0,0,0,0,0,1.3921,1.3932,1.4547,1.4553,1.4558,1.496,1.4965,1.4971,1.5153,1.5152,1.5151,1.5151,1.5574,1.5588,1.5602,0,0,0,0,0,0,0,0,0,0,0,0,0,1.4249,1.3935,1.4547,1.4697,1.4715,1.4958,1.4965,1.4972,1.5153,1.5152,1.5151,1.515,1.5569,1.5587,1.5604,1.5731,0,0,1.5659,1.5666,0,0,0,0,0,0,0,0,1.4231,1.4272,1.467,1.4687,1.4707,1.5004,1.4901,1.5227,1.5153,1.4987,1.5151,1.515,1.5388,1.5421,1.55,1.5751,1.5769,1.566,1.5671,1.5679,1.5684,0,0,0,0,0,0,0,1.4208,1.4256,1.4711,1.4675,1.4698,1.4745,1.4791,1.4964,1.5187,1.5001,1.5015,1.5061,1.5398,1.5482,1.5511,1.5776,1.566,1.5676,1.5687,1.5694,1.6153,1.6155,0,0,0,0,0,0,1.416,1.4235,1.4698,1.4723,1.4462,1.4757,1.4808,1.491,1.5186,1.5227,1.5062,1.5068,1.5452,1.549,1.5527,1.5695,1.5679,1.5695,1.5706,1.6152,1.6154,1.6155,0,0,0,0,0,0,1.4146,1.4199,1.4681,1.4484,1.4548,1.4769,1.4881,1.4918,1.5003,1.5231,1.5273,1.5106,1.5453,1.5502,1.5679,1.5712,1.5703,1.572,1.615,1.6152,1.6154,1.603,0,0,0,0,0,0,1.4127,1.4193,1.4242,1.4483,1.4558,1.4824,1.4883,1.4927,1.5033,1.5045,1.5284,1.5323,1.5456,1.5651,1.5697,1.5737,1.5734,1.6148,1.6151,1.6154,1.6032,1.6027,1.6024,0,0,0,0,0,1.4104,1.4191,1.4244,1.4299,1.4624,1.4826,1.4869,1.5019,1.5034,1.5087,1.5234,1.5316,1.5701,1.5668,1.5721,1.5766,1.6147,1.615,1.6153,1.6034,1.6028,1.6024,0,0,0,0,0,0,1.395,1.4226,1.4287,1.4455,1.4615,1.4856,1.4927,1.5008,1.5169,1.5174,1.5355,1.5408,1.5569,1.5686,1.5644,1.5904,1.5931,1.5945,1.5822,1.5819,1.5815,1.5784,1.5748,0,0,0,0,0,1.3935,1.4074,1.4309,1.4434,1.4512,1.4704,1.4798,1.49,1.5074,1.5143,1.5303,1.547,1.563,1.5731,1.589,1.6049,1.6105,1.6107,1.6103,1.6098,1.6109,1.6203,1.6207,1.6166,1.6166,1.6166,0,0,1.3907,1.4075,1.4152,1.4408,1.4544,1.4686,1.4761,1.4907,1.5015,1.5166,1.5343,1.5466,1.5665,1.5833,1.5916,1.5936,1.6132,1.6103,1.6097,1.6111,1.6207,1.6211,1.6214,1.6169,1.6168,1.6168,0,0,1.3928,1.4068,1.4189,1.4324,1.4529,1.4657,1.4685,1.4915,1.5002,1.5181,1.5298,1.5429,1.5699,1.5836,1.5941,1.6014,1.6096,1.6061,1.604,1.613,1.6133,1.6137,1.6164,1.6171,1.607,1.607,1.607,0,1.3867,1.4084,1.4241,1.4381,1.4491,1.4633,1.4757,1.4881,1.5127,1.5201,1.5219,1.5561,1.5704,1.5908,1.5925,1.6005,1.6045,1.6035,1.612,1.6125,1.6131,1.6159,1.6169,1.6064,1.6065,1.6066,1.6066,0,1.4,1.4148,1.4221,1.4455,1.4573,1.4704,1.4882,1.4983,1.5074,1.52,1.5382,1.556,1.5757,1.5813,1.5904,1.603,1.6036,1.6084,1.6115,1.6126,1.6156,1.6168,1.6056,1.6058,1.606,1.6061,0,0,1.3936,1.4254,1.4278,1.4386,1.4623,1.4742,1.488,1.5072,1.5156,1.5321,1.5443,1.5668,1.5714,1.5833,1.5941,1.602,1.6067,1.6059,1.6067,1.6055,1.6219,1.6181,1.6191,1.6123,1.6125,1.6128,1.6203,0,1.399,1.4243,1.4388,1.4582,1.4722,1.4859,1.498,1.5139,1.526,1.5398,1.5534,1.5691,1.5739,1.5812,1.5896,1.6043,1.6103,1.604,1.624,1.6245,1.6186,1.6207,1.6168,1.623,1.6215,1.6217,1.6219,0,1.4087,1.4249,1.4455,1.4677,1.4742,1.4847,1.5035,1.5165,1.5348,1.5432,1.5564,1.5671,1.5825,1.5842,1.6057,1.6011,1.6101,1.6186,1.6192,1.6218,1.6233,1.6233,1.6254,1.6263,1.6238,1.6237,1.6235,0,1.4021,1.429,1.4449,1.4537,1.48,1.4871,1.4984,1.5166,1.5273,1.5438,1.5509,1.5689,1.5789,1.5927,1.6081,1.6079,1.6281,1.6311,1.6356,1.6352,1.6393,1.6389,1.6429,1.6449,1.6449,1.6449,1.6448,0,1.4067,1.4188,1.4423,1.4521,1.4662,1.4828,1.4963,1.5087,1.5248,1.5374,1.5504,1.5619,1.5815,1.5956,1.6077,1.6237,1.6281,1.6354,1.6385,1.6343,1.6334,1.6406,1.6406,1.6451,1.6451,1.645,1.645,0,1.4017,1.4179,1.4361,1.4594,1.4656,1.4749,1.4949,1.5051,1.5178,1.5336,1.5382,1.5584,1.5756,1.5923,1.6154,1.6236,1.6396,1.6436,1.6333,1.635,1.6386,1.638,1.6475,1.6496,1.6499,1.6499,1.6498,0,1.4036,1.4133,1.4375,1.4468,1.4578,1.4725,1.4834,1.5002,1.511,1.5327,1.5402,1.5583,1.5737,1.6005,1.6174,1.6351,1.6398,1.6419,1.6426,1.6381,1.64,1.6393,1.6404,1.6414,1.6413,1.6413,1.6412,0,1.4053,1.4128,1.4279,1.4459,1.4585,1.4735,1.4889,1.4958,1.5155,1.5271,1.5447,1.5566,1.5801,1.598,1.6177,1.6296,1.6388,1.6408,1.6429,1.6387,1.6323,1.6359,1.6322,1.6406,1.6407,1.6407,1.6407,1.6408,1.404,1.4132,1.4317,1.4482,1.4615,1.4757,1.4863,1.5004,1.5153,1.5357,1.5447,1.5625,1.5808,1.6082,1.6199,1.6342,1.6365,1.6393,1.6401,1.6406,1.6397,1.6299,1.6379,1.6379,1.6379,1.638,1.638,0,1.4064,1.419,1.434,1.4551,1.468,1.4753,1.4928,1.5032,1.5187,1.5349,1.5497,1.57,1.5874,1.6055,1.624,1.632,1.6367,1.6363,1.636,1.6386,1.6366,1.633,1.6322,1.6322,1.6322,1.6322,1.6322,1.6322,1.4092,1.4253,1.435,1.4579,1.4705,1.4879,1.4973,1.5104,1.5234,1.5455,1.5599,1.5716,1.5887,1.6085,1.6248,1.6298,1.636,1.6345,1.6406,1.6383,1.6387,1.6391,1.6358,1.6357,1.6357,1.6415,1.6415,1.6415]},{"header":{"parameterUnit":"m.s-1","parameterCategory":1,"la1":30.2991,"la2":30.254,"lo1":-89.0895,"lo2":-89.0444,"dy":0.0017,"dx":0.0017,"nx":28,"ny":28,"refTime":"2023-06-19T21:00:00:Z","depth":0,"parameterNumber":3,"parameterNumberName":"V-component_of_WINDS"},"data":[0,0,0,0,0,0,0,0,0,0,0,0,0,0,0,0,0,0,0,0,0,0,0,0,0,0,0,0,0,0,0,0,0,0,0,0,0,0,0,0,0,0,0,0,0,0,0,0,0,0,0,0,0,0,0,0,0,0,11.6605,11.6606,0,11.6714,11.6716,11.6717,11.6582,11.6577,11.6572,11.6567,11.6669,11.6676,11.6683,0,0,0,0,0,0,0,0,0,0,0,0,0,11.6267,11.6274,11.6605,11.6606,11.6608,11.6714,11.6716,11.6717,11.6583,11.6577,11.6571,11.6565,11.6666,11.6675,11.6684,0,0,0,0,0,0,0,0,0,0,0,0,0,11.6399,11.6276,11.6605,11.6554,11.655,11.6714,11.6716,11.6718,11.6584,11.6577,11.6569,11.6562,11.6663,11.6674,11.6685,11.69,0,0,11.6718,11.6723,0,0,0,0,0,0,0,0,11.6391,11.6411,11.656,11.6558,11.6554,11.6627,11.6633,11.6779,11.6586,11.6571,11.6567,11.6559,11.666,11.6671,11.6707,11.6905,11.691,11.6719,11.6726,11.6731,11.6734,0,0,0,0,0,0,0,11.6382,11.6406,11.6648,11.6562,11.6559,11.6521,11.6532,11.666,11.6655,11.6572,11.6562,11.6578,11.6657,11.6697,11.6709,11.6911,11.6719,11.6729,11.6735,11.674,11.7286,11.7294,0,0,0,0,0,0,11.6381,11.6399,11.6644,11.6651,11.6453,11.6533,11.6545,11.6611,11.6654,11.6653,11.6584,11.6571,11.6682,11.6696,11.6712,11.6963,11.6731,11.6741,11.6747,11.7278,11.7288,11.7296,0,0,0,0,0,0,11.6374,11.6404,11.664,11.6523,11.655,11.6547,11.6622,11.6617,11.6657,11.6663,11.666,11.6627,11.6677,11.6696,11.6854,11.6965,11.6746,11.6756,11.7269,11.7281,11.7292,11.7471,0,0,0,0,0,0,11.6365,11.6403,11.6488,11.6526,11.6557,11.6785,11.6629,11.6625,11.6678,11.6662,11.6702,11.6702,11.6672,11.6839,11.6865,11.6976,11.6764,11.7259,11.7274,11.7288,11.7455,11.7488,11.7516,0,0,0,0,0,11.6353,11.6532,11.6493,11.6523,11.6664,11.6792,11.6809,11.6775,11.6687,11.677,11.6773,11.67,11.695,11.6856,11.6885,11.7001,11.7252,11.727,11.7287,11.7442,11.7481,11.7515,0,0,0,0,0,0,11.6504,11.6536,11.6493,11.669,11.674,11.6769,11.6873,11.6818,11.6891,11.6873,11.6824,11.6834,11.7002,11.7017,11.6912,11.7209,11.7085,11.711,11.7193,11.7231,11.726,11.7251,11.6773,0,0,0,0,0,11.6561,11.6666,11.6687,11.6859,11.6886,11.6876,11.693,11.69,11.6947,11.6967,11.6981,11.7027,11.7115,11.7174,11.7256,11.7458,11.7462,11.7551,11.7581,11.7606,11.7627,11.773,11.7769,11.7355,11.7355,11.7355,0,0,11.6677,11.6708,11.6777,11.689,11.6924,11.703,11.6894,11.7012,11.7088,11.6983,11.7133,11.7146,11.7193,11.7374,11.7453,11.7391,11.7742,11.7629,11.7649,11.7656,11.7752,11.7792,11.7826,11.7367,11.7365,11.7363,0,0,11.6944,11.698,11.7125,11.7163,11.7219,11.721,11.7246,11.7283,11.7288,11.7439,11.7361,11.7449,11.7604,11.764,11.7678,11.7957,11.7891,11.7985,11.8141,11.8242,11.8275,11.8303,11.8399,11.8434,11.8006,11.8007,11.8007,0,11.7081,11.7241,11.7206,11.733,11.7379,11.7292,11.7436,11.7473,11.7551,11.7585,11.7516,11.7706,11.7732,11.7917,11.7985,11.8021,11.8055,11.7979,11.8274,11.8302,11.8328,11.8418,11.8455,11.8017,11.8016,11.8015,11.8014,0,11.7404,11.7517,11.7627,11.7707,11.7769,11.7903,11.7883,11.795,11.7914,11.7911,11.8063,11.8092,11.8176,11.8218,11.8184,11.8398,11.8357,11.8283,11.8156,11.8379,11.8463,11.8497,11.8033,11.8029,11.8026,11.8023,0,0,11.7767,11.7827,11.7868,11.7901,11.7956,11.8039,11.8167,11.8252,11.8308,11.8365,11.8466,11.8599,11.8529,11.8573,11.8541,11.8631,11.8845,11.8544,11.8544,11.8595,11.9078,11.9131,11.9172,11.8803,11.8809,11.8815,11.9072,0,11.8031,11.8256,11.8227,11.844,11.854,11.8458,11.8568,11.8611,11.8612,11.8693,11.8692,11.8786,11.8689,11.8714,11.88,11.8801,11.894,11.8782,11.8892,11.8897,11.888,11.9217,11.9274,11.9516,11.9105,11.9111,11.9115,0,11.8369,11.844,11.8664,11.8701,11.8741,11.8842,11.8915,11.8997,11.9042,11.9035,11.9085,11.9037,11.9159,11.9034,11.9199,11.9092,11.9136,11.9143,11.9151,11.9157,11.9017,11.9228,11.9593,11.9628,11.9167,11.9163,11.9159,0,11.8606,11.8758,11.8911,11.8943,11.899,11.9061,11.9084,11.9122,11.9174,11.9238,11.927,11.9348,11.9389,11.9447,11.9419,11.9331,11.9588,11.9461,11.9582,11.9583,11.9637,11.9633,12.0011,11.9672,11.9672,11.9671,11.967,0,11.8902,11.9041,11.9017,11.9111,11.9263,11.9227,11.9376,11.9388,11.9423,11.9513,11.9447,11.9533,11.9493,11.9574,11.9553,11.9691,11.9711,11.9706,11.9698,11.971,11.971,11.9735,11.9716,11.9681,11.9679,11.9677,11.9675,0,11.9191,11.9182,11.9342,11.9374,11.9385,11.9496,11.952,11.9606,11.9602,11.9717,11.9742,11.9735,11.9828,11.9807,11.9908,11.9893,12.0065,12.0038,12.0051,12.0043,12.0163,12.0151,12.0566,12.0617,12.025,12.0254,12.0257,0,11.9379,11.9484,11.9528,11.9586,11.9614,11.9708,11.9761,11.9729,11.9786,11.9845,11.9922,12.001,12.0077,12.0229,12.023,12.0306,12.0277,12.0418,12.0288,12.0296,12.0274,12.0267,12.0275,12.0442,12.0446,12.045,12.0453,0,11.9711,11.9701,11.9783,11.9863,11.9929,11.999,12.0043,12.0093,12.0064,12.0132,12.0228,12.0281,12.0384,12.047,12.054,12.0558,12.0499,12.0494,12.0525,12.0537,12.0538,12.0535,12.0117,12.0484,12.0481,12.0478,12.0477,12.0475,11.9952,12.0041,12.0085,12.0177,12.0215,12.0266,12.0347,12.0354,12.0434,12.0518,12.0493,12.0601,12.0639,12.0728,12.0755,12.0835,12.0782,12.0828,12.0839,12.085,12.0863,12.0529,12.0848,12.0847,12.0846,12.0846,12.0845,0,12.0277,12.0302,12.0388,12.0466,12.0537,12.048,12.0536,12.0598,12.0695,12.0738,12.0807,12.0914,12.0997,12.1005,12.1082,12.1145,12.112,12.1166,12.1159,12.1163,12.0909,12.0872,12.1185,12.1185,12.1185,12.1185,12.1184,12.1184,12.0455,12.06,12.0595,12.0757,12.0779,12.0887,12.0923,12.0968,12.1002,12.1126,12.1196,12.1202,12.1229,12.1308,12.1379,12.1379,12.1409,12.1465,12.1454,12.1215,12.1181,12.1149,12.1114,12.1472,12.1473,12.17,12.1703,12.1704]}]]